#datetime,meter,power
2022-07-06T00:00:00,01,4.54
2022-07-06T00:01:00,01,4.64
2022-07-06T00:02:00,01,4.64
2022-07-06T00:03:00,01,0.29
2022-07-06T00:04:00,01,0.29
2022-07-06T00:05:00,01,2.63
2022-07-06T00:06:00,01,2.63
2022-07-06T00:07:00,01,3.67
2022-07-06T00:08:00,01,3.67
2022-07-06T00:09:00,01,1.94
2022-07-06T00:10:00,01,1.98
2022-07-06T00:11:00,01,1.98
2022-07-06T00:12:00,01,0.89
2022-07-06T00:13:00,01,0.89
2022-07-06T00:14:00,01,0.53
2022-07-06T00:15:00,01,0.53
2022-07-06T00:16:00,01,2.31
2022-07-06T00:17:00,01,2.13
2022-07-06T00:18:00,01,2.13
2022-07-06T00:19:00,01,1.20
2022-07-06T00:20:00,01,1.20
2022-07-06T00:21:00,01,5.03
2022-07-06T00:22:00,01,5.03
2022-07-06T00:23:00,01,1.14
2022-07-06T00:24:00,01,1.14
2022-07-06T00:25:00,01,0.58
2022-07-06T00:26:00,01,0.58
2022-07-06T00:27:00,01,2.59
2022-07-06T00:28:00,01,2.59
2022-07-06T00:29:00,01,3.98
2022-07-06T00:30:00,01,3.97
2022-07-06T00:31:00,01,2.51
2022-07-06T00:32:00,01,2.51
2022-07-06T00:34:00,01,0.72
2022-07-06T00:35:00,01,2.87
2022-07-06T00:36:00,01,2.87
2022-07-06T00:37:00,01,3.87
2022-07-06T00:38:00,01,3.87
2022-07-06T00:39:00,01,3.82
2022-07-06T00:40:00,01,3.82
2022-07-06T00:41:00,01,1.58
2022-07-06T00:42:00,01,1.58
2022-07-06T00:43:00,01,2.14
2022-07-06T00:44:00,01,4.20
2022-07-06T00:45:00,01,4.20
2022-07-06T00:46:00,01,4.83
2022-07-06T00:47:00,01,4.83
2022-07-06T00:48:00,01,1.91
2022-07-06T00:49:00,01,1.91
2022-07-06T00:50:00,01,2.08
2022-07-06T00:51:00,01,2.08
2022-07-06T00:52:00,01,1.74
2022-07-06T00:53:00,01,1.74
2022-07-06T00:54:00,01,3.47
2022-07-06T00:55:00,01,1.24
2022-07-06T00:56:00,01,1.18
2022-07-06T00:57:00,01,1.18
2022-07-06T00:58:00,01,1.75
2022-07-06T00:59:00,01,1.75
2022-07-06T01:00:00,01,2.52
2022-07-06T01:01:00,01,2.52
2022-07-06T01:02:00,01,0.51
2022-07-06T01:03:00,01,0.38
2022-07-06T01:04:00,01,0.38
2022-07-06T01:05:00,01,1.98
2022-07-06T01:06:00,01,1.98
2022-07-06T01:07:00,01,4.25
2022-07-06T01:08:00,01,4.32
2022-07-06T01:09:00,01,4.32
2022-07-06T01:10:00,01,1.72
2022-07-06T01:11:00,01,0.56
2022-07-06T01:12:00,01,0.56
2022-07-06T01:13:00,01,0.03
2022-07-06T01:14:00,01,0.03
2022-07-06T01:15:00,01,1.22
2022-07-06T01:16:00,01,2.73
2022-07-06T01:17:00,01,2.73
2022-07-06T01:18:00,01,3.18
2022-07-06T01:19:00,01,1.46
2022-07-06T01:20:00,01,1.46
2022-07-06T01:21:00,01,0.44
2022-07-06T01:22:00,01,0.44
2022-07-06T01:24:00,01,3.62
2022-07-06T01:25:00,01,3.62
2022-07-06T01:26:00,01,3.56
2022-07-06T01:27:00,01,2.43
2022-07-06T01:28:00,01,2.62
2022-07-06T01:29:00,01,2.62
2022-07-06T01:30:00,01,1.69
2022-07-06T01:31:00,01,0.42
2022-07-06T01:32:00,01,2.48
2022-07-06T01:33:00,01,2.48
2022-07-06T01:34:00,01,3.65
2022-07-06T01:35:00,01,3.65
2022-07-06T01:36:00,01,2.12
2022-07-06T01:37:00,01,2.11
2022-07-06T01:38:00,01,2.11
2022-07-06T01:39:00,01,2.26
2022-07-06T01:40:00,01,2.26
2022-07-06T01:41:00,01,1.93
2022-07-06T01:42:00,01,1.92
2022-07-06T01:43:00,01,1.71
2022-07-06T01:44:00,01,1.71
2022-07-06T01:45:00,01,1.62
2022-07-06T01:46:00,01,1.17
2022-07-06T01:47:00,01,1.17
2022-07-06T01:48:00,01,1.47
2022-07-06T01:49:00,01,1.47
2022-07-06T01:50:00,01,3.25
2022-07-06T01:51:00,01,3.25
2022-07-06T01:54:00,01,1.80
2022-07-06T01:55:00,01,1.80
2022-07-06T01:56:00,01,1.92
2022-07-06T01:57:00,01,3.72
2022-07-06T01:58:00,01,3.72
2022-07-06T01:59:00,01,3.33
2022-07-06T02:00:00,01,1.82
2022-07-06T02:01:00,01,1.82
2022-07-06T02:02:00,01,0.62
2022-07-06T02:03:00,01,0.62
2022-07-06T02:04:00,01,0.63
2022-07-06T02:05:00,01,0.63
2022-07-06T02:06:00,01,3.45
2022-07-06T02:07:00,01,3.45
2022-07-06T02:08:00,01,1.53
2022-07-06T02:09:00,01,1.53
2022-07-06T02:10:00,01,1.98
2022-07-06T02:11:00,01,1.98
2022-07-06T02:12:00,01,0.40
2022-07-06T02:13:00,01,0.40
2022-07-06T02:14:00,01,3.75
2022-07-06T02:15:00,01,3.75
2022-07-06T02:16:00,01,7.31
2022-07-06T02:17:00,01,7.31
2022-07-06T02:18:00,01,5.25
2022-07-06T02:19:00,01,5.25
2022-07-06T02:20:00,01,1.11
2022-07-06T02:21:00,01,2.05
2022-07-06T02:22:00,01,2.12
2022-07-06T02:23:00,01,2.12
2022-07-06T02:24:00,01,2.49
2022-07-06T02:25:00,01,2.49
2022-07-06T02:26:00,01,1.50
2022-07-06T02:27:00,01,1.74
2022-07-06T02:28:00,01,1.74
2022-07-06T02:29:00,01,1.50
2022-07-06T02:30:00,01,1.50
2022-07-06T02:31:00,01,1.73
2022-07-06T02:32:00,01,1.81
2022-07-06T02:33:00,01,1.81
2022-07-06T02:34:00,01,1.65
2022-07-06T02:35:00,01,2.00
2022-07-06T02:36:00,01,2.00
2022-07-06T02:37:00,01,2.00
2022-07-06T02:38:00,01,3.59
2022-07-06T02:39:00,01,3.59
2022-07-06T02:40:00,01,3.42
2022-07-06T02:41:00,01,1.85
2022-07-06T02:42:00,01,1.85
2022-07-06T02:45:00,01,3.94
2022-07-06T02:46:00,01,3.94
2022-07-06T02:47:00,01,3.41
2022-07-06T02:48:00,01,1.49
2022-07-06T02:49:00,01,1.49
2022-07-06T02:50:00,01,1.76
2022-07-06T02:51:00,01,1.76
2022-07-06T02:52:00,01,0.22
2022-07-06T02:53:00,01,4.71
2022-07-06T02:54:00,01,4.71
2022-07-06T02:55:00,01,4.17
2022-07-06T02:56:00,01,2.38
2022-07-06T02:57:00,01,2.38
2022-07-06T02:58:00,01,2.49
2022-07-06T02:59:00,01,2.49
2022-07-06T03:00:00,01,2.17
2022-07-06T03:01:00,01,2.17
2022-07-06T03:02:00,01,2.38
2022-07-06T03:03:00,01,2.38
2022-07-06T03:04:00,01,0.84
2022-07-06T03:05:00,01,0.84
2022-07-06T03:06:00,01,1.43
2022-07-06T03:07:00,01,1.43
2022-07-06T03:08:00,01,3.32
2022-07-06T03:09:00,01,3.44
2022-07-06T03:10:00,01,3.44
2022-07-06T03:15:00,01,3.01
2022-07-06T03:16:00,01,3.22
2022-07-06T03:17:00,01,3.22
2022-07-06T03:18:00,01,1.50
2022-07-06T03:19:00,01,1.50
2022-07-06T03:20:00,01,1.88
2022-07-06T03:21:00,01,1.88
2022-07-06T03:23:00,01,1.55
2022-07-06T03:24:00,01,1.55
2022-07-06T03:25:00,01,3.33
2022-07-06T03:26:00,01,3.33
2022-07-06T03:27:00,01,1.29
2022-07-06T03:28:00,01,1.29
2022-07-06T03:29:00,01,1.08
2022-07-06T03:30:00,01,1.56
2022-07-06T03:31:00,01,1.56
2022-07-06T03:32:00,01,1.56
2022-07-06T03:33:00,01,1.73
2022-07-06T03:34:00,01,1.96
2022-07-06T03:35:00,01,1.96
2022-07-06T03:36:00,01,1.72
2022-07-06T03:37:00,01,1.46
2022-07-06T03:38:00,01,1.46
2022-07-06T03:39:00,01,3.50
2022-07-06T03:40:00,01,3.50
2022-07-06T03:42:00,01,0.50
2022-07-06T03:43:00,01,2.87
2022-07-06T03:44:00,01,2.87
2022-07-06T03:45:00,01,4.29
2022-07-06T03:46:00,01,4.29
2022-07-06T03:47:00,01,3.84
2022-07-06T03:48:00,01,1.65
2022-07-06T03:49:00,01,1.65
2022-07-06T03:50:00,01,0.01
2022-07-06T03:51:00,01,0.01
2022-07-06T03:52:00,01,2.11
2022-07-06T03:53:00,01,2.11
2022-07-06T03:54:00,01,3.81
2022-07-06T03:55:00,01,1.78
2022-07-06T03:56:00,01,1.78
2022-07-06T03:57:00,01,1.76
2022-07-06T03:58:00,01,1.94
2022-07-06T03:59:00,01,1.94
2022-07-06T04:00:00,01,2.44
2022-07-06T04:01:00,01,2.44
2022-07-06T04:02:00,01,1.48
2022-07-06T04:03:00,01,1.03
2022-07-06T04:04:00,01,1.21
2022-07-06T04:05:00,01,1.21
2022-07-06T04:06:00,01,2.06
2022-07-06T04:07:00,01,2.06
2022-07-06T04:08:00,01,3.91
2022-07-06T04:09:00,01,3.91
2022-07-06T04:10:00,01,0.45
2022-07-06T04:11:00,01,0.80
2022-07-06T04:12:00,01,0.80
2022-07-06T04:13:00,01,2.64
2022-07-06T04:14:00,01,2.64
2022-07-06T04:15:00,01,3.49
2022-07-06T04:16:00,01,3.69
2022-07-06T04:17:00,01,3.69
2022-07-06T04:18:00,01,2.07
2022-07-06T04:19:00,01,2.07
2022-07-06T04:20:00,01,0.07
2022-07-06T04:21:00,01,0.07
2022-07-06T04:22:00,01,3.96
2022-07-06T04:23:00,01,3.81
2022-07-06T04:24:00,01,3.81
2022-07-06T04:25:00,01,1.89
2022-07-06T04:26:00,01,1.81
2022-07-06T04:27:00,01,1.81
2022-07-06T04:28:00,01,2.58
2022-07-06T04:29:00,01,2.20
2022-07-06T04:30:00,01,2.20
2022-07-06T04:31:00,01,2.20
2022-07-06T04:32:00,01,1.68
2022-07-06T04:33:00,01,1.68
2022-07-06T04:34:00,01,1.78
2022-07-06T04:35:00,01,1.62
2022-07-06T04:36:00,01,2.94
2022-07-06T04:37:00,01,2.94
2022-07-06T04:38:00,01,2.96
2022-07-06T04:42:00,01,1.49
2022-07-06T04:43:00,01,1.49
2022-07-06T04:44:00,01,2.94
2022-07-06T04:45:00,01,3.17
2022-07-06T04:46:00,01,3.17
2022-07-06T04:47:00,01,1.36
2022-07-06T04:48:00,01,1.36
2022-07-06T04:50:00,01,0.15
2022-07-06T04:51:00,01,1.80
2022-07-06T04:52:00,01,1.80
2022-07-06T04:53:00,01,2.47
2022-07-06T04:54:00,01,2.47
2022-07-06T04:55:00,01,1.78
2022-07-06T04:56:00,01,1.78
2022-07-06T04:57:00,01,1.49
2022-07-06T04:58:00,01,1.49
2022-07-06T04:59:00,01,1.28
2022-07-06T05:00:00,01,1.45
2022-07-06T05:01:00,01,1.18
2022-07-06T05:02:00,01,1.18
2022-07-06T05:03:00,01,1.79
2022-07-06T05:04:00,01,1.30
2022-07-06T05:05:00,01,1.30
2022-07-06T05:06:00,01,3.14
2022-07-06T05:07:00,01,2.98
2022-07-06T05:08:00,01,2.98
2022-07-06T05:11:00,01,1.09
2022-07-06T05:12:00,01,1.09
2022-07-06T05:13:00,01,2.78
2022-07-06T05:14:00,01,3.54
2022-07-06T05:15:00,01,3.54
2022-07-06T05:16:00,01,2.18
2022-07-06T05:17:00,01,2.18
2022-07-06T05:18:00,01,0.32
2022-07-06T05:19:00,01,0.32
2022-07-06T05:20:00,01,4.05
2022-07-06T05:21:00,01,4.05
2022-07-06T05:22:00,01,3.76
2022-07-06T05:23:00,01,3.76
2022-07-06T05:24:00,01,1.24
2022-07-06T05:25:00,01,1.26
2022-07-06T05:26:00,01,1.26
2022-07-06T05:27:00,01,1.69
2022-07-06T05:28:00,01,1.71
2022-07-06T05:29:00,01,3.70
2022-07-06T05:30:00,01,3.70
2022-07-06T05:31:00,01,1.67
2022-07-06T05:32:00,01,1.87
2022-07-06T05:33:00,01,1.87
2022-07-06T05:34:00,01,3.72
2022-07-06T05:35:00,01,3.72
2022-07-06T05:36:00,01,1.10
2022-07-06T05:37:00,01,1.10
2022-07-06T05:39:00,01,1.39
2022-07-06T05:40:00,01,1.39
2022-07-06T05:41:00,01,2.21
2022-07-06T05:42:00,01,2.21
2022-07-06T05:43:00,01,3.29
2022-07-06T05:44:00,01,3.29
2022-07-06T05:45:00,01,1.46
2022-07-06T05:46:00,01,0.30
2022-07-06T05:49:00,01,3.90
2022-07-06T05:50:00,01,3.90
2022-07-06T05:51:00,01,2.78
2022-07-06T05:52:00,01,2.78
2022-07-06T05:53:00,01,2.81
2022-07-06T05:54:00,01,2.81
2022-07-06T05:55:00,01,1.62
2022-07-06T05:56:00,01,1.62
2022-07-06T05:57:00,01,2.26
2022-07-06T05:58:00,01,2.26
2022-07-06T05:59:00,01,4.43
2022-07-06T06:00:00,01,4.43
2022-07-06T06:01:00,01,3.87
2022-07-06T06:02:00,01,3.87
2022-07-06T06:03:00,01,3.66
2022-07-06T06:04:00,01,3.66
2022-07-06T06:05:00,01,2.09
2022-07-06T06:06:00,01,2.09
2022-07-06T06:07:00,01,4.28
2022-07-06T06:08:00,01,3.67
2022-07-06T06:09:00,01,3.67
2022-07-06T06:10:00,01,3.50
2022-07-06T06:11:00,01,3.50
2022-07-06T06:12:00,01,5.16
2022-07-06T06:13:00,01,5.16
2022-07-06T06:14:00,01,2.39
2022-07-06T06:15:00,01,2.39
2022-07-06T06:16:00,01,7.26
2022-07-06T06:17:00,01,7.26
2022-07-06T06:18:00,01,8.40
2022-07-06T06:19:00,01,8.40
2022-07-06T06:20:00,01,7.56
2022-07-06T06:21:00,01,7.21
2022-07-06T06:22:00,01,7.21
2022-07-06T06:23:00,01,2.26
2022-07-06T06:24:00,01,3.17
2022-07-06T06:25:00,01,3.17
2022-07-06T06:26:00,01,5.18
2022-07-06T06:27:00,01,5.18
2022-07-06T06:28:00,01,4.62
2022-07-06T06:29:00,01,4.62
2022-07-06T06:30:00,01,4.26
2022-07-06T06:31:00,01,4.26
2022-07-06T06:32:00,01,2.77
2022-07-06T06:33:00,01,2.71
2022-07-06T06:34:00,01,2.28
2022-07-06T06:35:00,01,2.28
2022-07-06T06:36:00,01,5.49
2022-07-06T06:37:00,01,5.49
2022-07-06T06:38:00,01,4.31
2022-07-06T06:39:00,01,4.31
2022-07-06T06:40:00,01,4.09
2022-07-06T06:41:00,01,4.09
2022-07-06T06:42:00,01,2.24
2022-07-06T06:43:00,01,2.24
2022-07-06T06:44:00,01,1.74
2022-07-06T06:45:00,01,4.40
2022-07-06T06:46:00,01,4.40
2022-07-06T06:47:00,01,4.49
2022-07-06T06:48:00,01,4.49
2022-07-06T06:49:00,01,4.58
2022-07-06T06:50:00,01,5.42
2022-07-06T06:51:00,01,5.42
2022-07-06T06:52:00,01,3.72
2022-07-06T06:53:00,01,3.08
2022-07-06T06:54:00,01,3.08
2022-07-06T06:55:00,01,4.67
2022-07-06T06:56:00,01,4.67
2022-07-06T06:57:00,01,4.42
2022-07-06T06:58:00,01,3.97
2022-07-06T06:59:00,01,3.97
2022-07-06T07:00:00,01,4.53
2022-07-06T07:01:00,01,4.53
2022-07-06T07:02:00,01,4.12
2022-07-06T07:03:00,01,4.47
2022-07-06T07:04:00,01,4.47
2022-07-06T07:05:00,01,5.44
2022-07-06T07:06:00,01,5.44
2022-07-06T07:07:00,01,4.82
2022-07-06T07:08:00,01,3.12
2022-07-06T07:09:00,01,3.12
2022-07-06T07:10:00,01,4.61
2022-07-06T07:11:00,01,4.61
2022-07-06T07:12:00,01,5.68
2022-07-06T07:13:00,01,6.34
2022-07-06T07:14:00,01,6.17
2022-07-06T07:15:00,01,6.17
2022-07-06T07:16:00,01,6.12
2022-07-06T07:17:00,01,6.12
2022-07-06T07:18:00,01,4.20
2022-07-06T07:19:00,01,4.22
2022-07-06T07:20:00,01,4.22
2022-07-06T07:21:00,01,4.64
2022-07-06T07:22:00,01,4.75
2022-07-06T07:23:00,01,4.75
2022-07-06T07:24:00,01,5.25
2022-07-06T07:25:00,01,5.42
2022-07-06T07:26:00,01,5.68
2022-07-06T07:27:00,01,5.68
2022-07-06T07:28:00,01,5.30
2022-07-06T07:29:00,01,3.57
2022-07-06T07:30:00,01,4.32
2022-07-06T07:31:00,01,4.32
2022-07-06T07:32:00,01,5.60
2022-07-06T07:33:00,01,5.60
2022-07-06T07:34:00,01,6.74
2022-07-06T07:35:00,01,6.74
2022-07-06T07:36:00,01,6.80
2022-07-06T07:37:00,01,6.00
2022-07-06T07:38:00,01,6.00
2022-07-06T07:39:00,01,4.33
2022-07-06T07:40:00,01,4.33
2022-07-06T07:41:00,01,3.64
2022-07-06T07:42:00,01,3.64
2022-07-06T07:43:00,01,6.05
2022-07-06T07:44:00,01,6.53
2022-07-06T07:45:00,01,6.53
2022-07-06T07:46:00,01,10.25
2022-07-06T07:47:00,01,10.43
2022-07-06T07:48:00,01,10.43
2022-07-06T07:49:00,01,5.23
2022-07-06T07:50:00,01,4.76
2022-07-06T07:51:00,01,4.76
2022-07-06T07:52:00,01,6.79
2022-07-06T07:53:00,01,6.79
2022-07-06T07:54:00,01,6.75
2022-07-06T07:55:00,01,7.17
2022-07-06T07:56:00,01,6.16
2022-07-06T07:57:00,01,6.16
2022-07-06T07:58:00,01,5.10
2022-07-06T07:59:00,01,5.10
2022-07-06T08:00:00,01,6.42
2022-07-06T08:01:00,01,6.41
2022-07-06T08:02:00,01,6.41
2022-07-06T08:03:00,01,6.07
2022-07-06T08:04:00,01,5.47
2022-07-06T08:05:00,01,5.47
2022-07-06T08:06:00,01,4.67
2022-07-06T08:07:00,01,4.67
2022-07-06T08:08:00,01,4.14
2022-07-06T08:09:00,01,4.14
2022-07-06T08:10:00,01,6.35
2022-07-06T08:11:00,01,6.35
2022-07-06T08:12:00,01,5.87
2022-07-06T08:13:00,01,6.07
2022-07-06T08:14:00,01,6.57
2022-07-06T08:15:00,01,6.57
2022-07-06T08:16:00,01,5.01
2022-07-06T08:17:00,01,4.47
2022-07-06T08:18:00,01,4.47
2022-07-06T08:19:00,01,6.26
2022-07-06T08:20:00,01,5.73
2022-07-06T08:21:00,01,5.73
2022-07-06T08:22:00,01,6.62
2022-07-06T08:23:00,01,10.66
2022-07-06T08:24:00,01,10.66
2022-07-06T08:25:00,01,8.79
2022-07-06T08:26:00,01,7.05
2022-07-06T08:27:00,01,7.05
2022-07-06T08:28:00,01,7.28
2022-07-06T08:29:00,01,6.87
2022-07-06T08:30:00,01,6.87
2022-07-06T08:31:00,01,7.31
2022-07-06T08:32:00,01,7.49
2022-07-06T08:33:00,01,7.64
2022-07-06T08:34:00,01,6.62
2022-07-06T08:35:00,01,6.62
2022-07-06T08:36:00,01,6.07
2022-07-06T08:37:00,01,6.22
2022-07-06T08:38:00,01,6.22
2022-07-06T08:39:00,01,6.57
2022-07-06T08:40:00,01,8.21
2022-07-06T08:41:00,01,8.21
2022-07-06T08:42:00,01,7.48
2022-07-06T08:43:00,01,7.48
2022-07-06T08:44:00,01,6.54
2022-07-06T08:45:00,01,6.54
2022-07-06T08:46:00,01,5.41
2022-07-06T08:47:00,01,5.41
2022-07-06T08:48:00,01,7.13
2022-07-06T08:49:00,01,7.13
2022-07-06T08:50:00,01,6.58
2022-07-06T08:51:00,01,6.31
2022-07-06T08:52:00,01,6.31
2022-07-06T08:53:00,01,6.94
2022-07-06T08:54:00,01,4.90
2022-07-06T08:55:00,01,4.90
2022-07-06T08:56:00,01,4.63
2022-07-06T08:57:00,01,4.63
2022-07-06T08:58:00,01,6.10
2022-07-06T08:59:00,01,6.26
2022-07-06T09:00:00,01,5.84
2022-07-06T09:01:00,01,5.84
2022-07-06T09:02:00,01,6.00
2022-07-06T09:03:00,01,6.00
2022-07-06T09:04:00,01,4.86
2022-07-06T09:05:00,01,4.89
2022-07-06T09:06:00,01,4.89
2022-07-06T09:07:00,01,6.61
2022-07-06T09:08:00,01,6.61
2022-07-06T09:09:00,01,5.33
2022-07-06T09:10:00,01,5.33
2022-07-06T09:11:00,01,5.40
2022-07-06T09:12:00,01,4.63
2022-07-06T09:13:00,01,5.15
2022-07-06T09:14:00,01,5.15
2022-07-06T09:15:00,01,5.68
2022-07-06T09:16:00,01,5.68
2022-07-06T09:17:00,01,6.50
2022-07-06T09:18:00,01,6.13
2022-07-06T09:19:00,01,6.13
2022-07-06T09:20:00,01,6.44
2022-07-06T09:21:00,01,6.44
2022-07-06T09:22:00,01,3.84
2022-07-06T09:23:00,01,3.84
2022-07-06T09:24:00,01,4.70
2022-07-06T09:25:00,01,4.70
2022-07-06T09:26:00,01,6.14
2022-07-06T09:27:00,01,6.14
2022-07-06T09:28:00,01,5.32
2022-07-06T09:29:00,01,5.84
2022-07-06T09:30:00,01,5.84
2022-07-06T09:31:00,01,3.72
2022-07-06T09:32:00,01,4.35
2022-07-06T09:33:00,01,3.94
2022-07-06T09:34:00,01,3.94
2022-07-06T09:35:00,01,9.13
2022-07-06T09:36:00,01,9.13
2022-07-06T09:37:00,01,5.50
2022-07-06T09:38:00,01,5.50
2022-07-06T09:39:00,01,7.28
2022-07-06T09:40:00,01,7.28
2022-07-06T09:41:00,01,4.75
2022-07-06T09:42:00,01,4.75
2022-07-06T09:43:00,01,1.69
2022-07-06T09:44:00,01,5.71
2022-07-06T09:45:00,01,5.71
2022-07-06T09:46:00,01,5.28
2022-07-06T09:47:00,01,4.99
2022-07-06T09:48:00,01,3.63
2022-07-06T09:49:00,01,3.63
2022-07-06T09:50:00,01,1.82
2022-07-06T09:51:00,01,1.82
2022-07-06T09:52:00,01,3.33
2022-07-06T09:53:00,01,3.33
2022-07-06T09:54:00,01,2.99
2022-07-06T09:55:00,01,3.64
2022-07-06T09:56:00,01,3.64
2022-07-06T09:57:00,01,3.45
2022-07-06T09:58:00,01,2.70
2022-07-06T09:59:00,01,0.91
2022-07-06T10:00:00,01,0.91
2022-07-06T10:01:00,01,2.37
2022-07-06T10:02:00,01,4.56
2022-07-06T10:03:00,01,4.56
2022-07-06T10:04:00,01,4.77
2022-07-06T10:05:00,01,4.77
2022-07-06T10:06:00,01,4.65
2022-07-06T10:07:00,01,4.65
2022-07-06T10:08:00,01,5.28
2022-07-06T10:09:00,01,5.28
2022-07-06T10:10:00,01,2.66
2022-07-06T10:11:00,01,2.94
2022-07-06T10:12:00,01,4.56
2022-07-06T10:13:00,01,4.56
2022-07-06T10:14:00,01,6.12
2022-07-06T10:15:00,01,6.12
2022-07-06T10:16:00,01,5.45
2022-07-06T10:17:00,01,5.45
2022-07-06T10:18:00,01,2.08
2022-07-06T10:19:00,01,2.08
2022-07-06T10:20:00,01,2.73
2022-07-06T10:21:00,01,2.73
2022-07-06T10:22:00,01,5.26
2022-07-06T10:23:00,01,5.26
2022-07-06T10:24:00,01,1.55
2022-07-06T10:25:00,01,3.13
2022-07-06T10:26:00,01,3.13
2022-07-06T10:27:00,01,4.22
2022-07-06T10:28:00,01,4.22
2022-07-06T10:29:00,01,3.41
2022-07-06T10:30:00,01,3.55
2022-07-06T10:31:00,01,3.55
2022-07-06T10:32:00,01,3.52
2022-07-06T10:33:00,01,3.52
2022-07-06T10:34:00,01,2.65
2022-07-06T10:35:00,01,3.83
2022-07-06T10:36:00,01,3.83
2022-07-06T10:37:00,01,1.97
2022-07-06T10:38:00,01,1.97
2022-07-06T10:39:00,01,6.08
2022-07-06T10:40:00,01,6.08
2022-07-06T10:41:00,01,3.51
2022-07-06T10:42:00,01,2.90
2022-07-06T10:43:00,01,3.53
2022-07-06T10:44:00,01,3.53
2022-07-06T10:45:00,01,3.78
2022-07-06T10:46:00,01,3.78
2022-07-06T10:47:00,01,2.37
2022-07-06T10:48:00,01,2.37
2022-07-06T10:49:00,01,4.01
2022-07-06T10:50:00,01,4.95
2022-07-06T10:51:00,01,4.95
2022-07-06T10:52:00,01,5.09
2022-07-06T10:53:00,01,5.09
2022-07-06T10:54:00,01,3.22
2022-07-06T10:55:00,01,3.22
2022-07-06T10:56:00,01,3.01
2022-07-06T10:57:00,01,3.01
2022-07-06T10:58:00,01,3.98
2022-07-06T10:59:00,01,3.98
2022-07-06T11:00:00,01,5.29
2022-07-06T11:01:00,01,5.29
2022-07-06T11:02:00,01,3.41
2022-07-06T11:03:00,01,3.41
2022-07-06T11:04:00,01,2.88
2022-07-06T11:05:00,01,2.88
2022-07-06T11:06:00,01,2.08
2022-07-06T11:07:00,01,2.08
2022-07-06T11:08:00,01,3.89
2022-07-06T11:09:00,01,3.86
2022-07-06T11:10:00,01,3.86
2022-07-06T11:11:00,01,5.97
2022-07-06T11:12:00,01,6.01
2022-07-06T11:13:00,01,6.01
2022-07-06T11:14:00,01,4.38
2022-07-06T11:15:00,01,2.84
2022-07-06T11:16:00,01,2.84
2022-07-06T11:17:00,01,3.91
2022-07-06T11:18:00,01,3.91
2022-07-06T11:19:00,01,6.09
2022-07-06T11:20:00,01,6.09
2022-07-06T11:21:00,01,6.57
2022-07-06T11:22:00,01,4.41
2022-07-06T11:23:00,01,2.57
2022-07-06T11:24:00,01,2.57
2022-07-06T11:25:00,01,4.20
2022-07-06T11:26:00,01,4.20
2022-07-06T11:27:00,01,5.68
2022-07-06T11:28:00,01,5.68
2022-07-06T11:29:00,01,5.03
2022-07-06T11:30:00,01,5.03
2022-07-06T11:31:00,01,2.29
2022-07-06T11:32:00,01,2.29
2022-07-06T11:38:00,01,0.45
2022-07-06T11:39:00,01,0.57
2022-07-06T11:40:00,01,0.57
2022-07-06T11:42:00,01,1.13
2022-07-06T11:43:00,01,1.13
2022-07-06T11:44:00,01,2.98
2022-07-06T11:45:00,01,3.30
2022-07-06T11:46:00,01,3.30
2022-07-06T11:47:00,01,2.55
2022-07-06T11:48:00,01,1.81
2022-07-06T11:49:00,01,1.81
2022-07-06T11:50:00,01,1.40
2022-07-06T11:51:00,01,2.67
2022-07-06T11:52:00,01,3.06
2022-07-06T11:53:00,01,3.06
2022-07-06T11:54:00,01,2.95
2022-07-06T11:55:00,01,0.96
2022-07-06T11:56:00,01,0.96
2022-07-06T11:57:00,01,3.75
2022-07-06T11:58:00,01,3.75
2022-07-06T11:59:00,01,3.88
2022-07-06T12:00:00,01,6.48
2022-07-06T12:01:00,01,4.20
2022-07-06T12:02:00,01,4.20
2022-07-06T12:03:00,01,3.54
2022-07-06T12:04:00,01,3.54
2022-07-06T12:05:00,01,4.05
2022-07-06T12:06:00,01,3.06
2022-07-06T12:07:00,01,3.06
2022-07-06T12:08:00,01,3.51
2022-07-06T12:09:00,01,3.51
2022-07-06T12:10:00,01,3.16
2022-07-06T12:11:00,01,3.16
2022-07-06T12:12:00,01,4.19
2022-07-06T12:13:00,01,5.62
2022-07-06T12:14:00,01,6.61
2022-07-06T12:15:00,01,6.61
2022-07-06T12:16:00,01,4.48
2022-07-06T12:17:00,01,5.25
2022-07-06T12:18:00,01,5.25
2022-07-06T12:19:00,01,8.55
2022-07-06T12:20:00,01,8.55
2022-07-06T12:21:00,01,7.35
2022-07-06T12:22:00,01,7.35
2022-07-06T12:23:00,01,7.95
2022-07-06T12:24:00,01,6.29
2022-07-06T12:25:00,01,6.29
2022-07-06T12:26:00,01,3.10
2022-07-06T12:27:00,01,3.10
2022-07-06T12:28:00,01,1.88
2022-07-06T12:29:00,01,2.34
2022-07-06T12:30:00,01,0.12
2022-07-06T12:31:00,01,0.26
2022-07-06T12:32:00,01,0.26
2022-07-06T12:35:00,01,1.17
2022-07-06T12:36:00,01,1.17
2022-07-06T12:37:00,01,5.00
2022-07-06T12:38:00,01,5.00
2022-07-06T12:39:00,01,5.44
2022-07-06T12:40:00,01,5.44
2022-07-06T12:44:00,01,2.95
2022-07-06T12:45:00,01,2.95
2022-07-06T12:46:00,01,3.50
2022-07-06T12:47:00,01,4.09
2022-07-06T12:48:00,01,4.09
2022-07-06T12:49:00,01,2.35
2022-07-06T12:50:00,01,2.35
2022-07-06T12:51:00,01,3.46
2022-07-06T12:52:00,01,3.46
2022-07-06T12:53:00,01,4.40
2022-07-06T12:54:00,01,4.40
2022-07-06T12:55:00,01,4.40
2022-07-06T12:56:00,01,4.38
2022-07-06T12:57:00,01,4.38
2022-07-06T12:58:00,01,4.15
2022-07-06T12:59:00,01,4.15
2022-07-06T13:00:00,01,4.33
2022-07-06T13:01:00,01,5.97
2022-07-06T13:02:00,01,5.97
2022-07-06T13:03:00,01,3.49
2022-07-06T13:04:00,01,3.80
2022-07-06T13:05:00,01,3.80
2022-07-06T13:06:00,01,7.11
2022-07-06T13:07:00,01,2.22
2022-07-06T13:08:00,01,2.22
2022-07-06T13:09:00,01,3.03
2022-07-06T13:10:00,01,3.03
2022-07-06T13:11:00,01,7.88
2022-07-06T13:12:00,01,7.88
2022-07-06T13:13:00,01,6.39
2022-07-06T13:14:00,01,6.39
2022-07-06T13:15:00,01,1.53
2022-07-06T13:16:00,01,1.53
2022-07-06T13:17:00,01,3.48
2022-07-06T13:18:00,01,3.48
2022-07-06T13:19:00,01,5.93
2022-07-06T13:20:00,01,4.28
2022-07-06T13:21:00,01,4.28
2022-07-06T13:22:00,01,3.15
2022-07-06T13:23:00,01,4.08
2022-07-06T13:24:00,01,4.08
2022-07-06T13:25:00,01,3.03
2022-07-06T13:26:00,01,3.03
2022-07-06T13:27:00,01,5.49
2022-07-06T13:28:00,01,5.05
2022-07-06T13:29:00,01,5.05
2022-07-06T13:30:00,01,3.96
2022-07-06T13:31:00,01,3.96
2022-07-06T13:32:00,01,2.20
2022-07-06T13:33:00,01,2.20
2022-07-06T13:34:00,01,3.39
2022-07-06T13:35:00,01,3.39
2022-07-06T13:36:00,01,5.18
2022-07-06T13:37:00,01,5.18
2022-07-06T13:38:00,01,3.04
2022-07-06T13:39:00,01,3.04
2022-07-06T13:40:00,01,3.32
2022-07-06T13:41:00,01,3.32
2022-07-06T13:42:00,01,2.48
2022-07-06T13:43:00,01,2.92
2022-07-06T13:44:00,01,2.92
2022-07-06T13:45:00,01,2.38
2022-07-06T13:46:00,01,2.38
2022-07-06T13:47:00,01,2.37
2022-07-06T13:48:00,01,2.41
2022-07-06T13:49:00,01,1.42
2022-07-06T13:50:00,01,1.42
2022-07-06T13:51:00,01,0.56
2022-07-06T13:52:00,01,1.55
2022-07-06T13:53:00,01,2.19
2022-07-06T13:54:00,01,2.19
2022-07-06T13:55:00,01,1.88
2022-07-06T13:56:00,01,1.88
2022-07-06T13:57:00,01,1.43
2022-07-06T13:58:00,01,1.43
2022-07-06T13:59:00,01,1.29
2022-07-06T14:00:00,01,1.29
2022-07-06T14:01:00,01,1.59
2022-07-06T14:02:00,01,0.98
2022-07-06T14:03:00,01,0.98
2022-07-06T14:04:00,01,1.15
2022-07-06T14:05:00,01,1.15
2022-07-06T14:06:00,01,3.76
2022-07-06T14:07:00,01,2.17
2022-07-06T14:08:00,01,2.17
2022-07-06T14:09:00,01,0.54
2022-07-06T14:10:00,01,0.54
2022-07-06T14:11:00,01,1.57
2022-07-06T14:12:00,01,1.57
2022-07-06T14:13:00,01,2.30
2022-07-06T14:14:00,01,2.30
2022-07-06T14:15:00,01,0.50
2022-07-06T14:16:00,01,0.51
2022-07-06T14:17:00,01,0.51
2022-07-06T14:18:00,01,1.02
2022-07-06T14:19:00,01,1.29
2022-07-06T14:20:00,01,1.29
2022-07-06T14:21:00,01,1.10
2022-07-06T14:22:00,01,1.10
2022-07-06T14:23:00,01,2.55
2022-07-06T14:24:00,01,2.55
2022-07-06T14:25:00,01,3.99
2022-07-06T14:26:00,01,3.99
2022-07-06T14:27:00,01,2.20
2022-07-06T14:28:00,01,2.20
2022-07-06T14:29:00,01,2.46
2022-07-06T14:30:00,01,1.93
2022-07-06T14:31:00,01,1.93
2022-07-06T14:32:00,01,2.57
2022-07-06T14:33:00,01,2.52
2022-07-06T14:34:00,01,4.94
2022-07-06T14:35:00,01,2.58
2022-07-06T14:36:00,01,2.58
2022-07-06T14:37:00,01,2.90
2022-07-06T14:38:00,01,2.40
2022-07-06T14:39:00,01,2.40
2022-07-06T14:40:00,01,0.39
2022-07-06T14:41:00,01,1.42
2022-07-06T14:42:00,01,1.42
2022-07-06T14:43:00,01,3.76
2022-07-06T14:44:00,01,3.76
2022-07-06T14:45:00,01,3.84
2022-07-06T14:46:00,01,3.84
2022-07-06T14:47:00,01,2.31